• In Germany
  • List of Countries
  • For 7 days
  • Water Temperature
  • Satellite Maps
  • Weather Map
  • Weather Widgets
  • user-avatar
    Login

    Hourly Weather Baunt

    Today, 26 September, Wednesday

    Time Temperature Precipitation Wind Pressure Humidity
    00:00 +5°C° 0 mm 1 mps 663 mmHg 77%
    01:00 +5°C° 0 mm 1 mps 663 mmHg 78%
    02:00 +5°C° 0 mm 1 mps 663 mmHg 78%
    03:00 +4°C° 0 mm 1 mps 663 mmHg 79%
    04:00 +4°C° 0 mm 1 mps 663 mmHg 79%
    05:00 +4°C° 0 mm 1 mps 663 mmHg 80%
    06:00 +5°C° 0 mm 1 mps 663 mmHg 77%
    07:00 +6°C° 0 mm 1 mps 663 mmHg 74%
    08:00 +7°C° 0 mm 1 mps 663 mmHg 71%
    09:00 +8°C° 0 mm 2 mps 663 mmHg 66%
    10:00 +9°C° 0 mm 2 mps 663 mmHg 61%
    11:00 +11°C° 0 mm 3 mps 663 mmHg 56%
    12:00 +12°C° 0 mm 3 mps 662 mmHg 53%
    13:00 +12°C° 0 mm 4 mps 662 mmHg 51%
    14:00 +13°C° 0 mm 4 mps 662 mmHg 48%
    15:00 +13°C° 0 mm 4 mps 661 mmHg 53%
    16:00 +12°C° 0 mm 3 mps 661 mmHg 58%
    17:00 +11°C° 0 mm 3 mps 661 mmHg 62%
    18:00 +10°C° 0.1 mm 2 mps 660 mmHg 69%
    19:00 +9°C° 0.1 mm 2 mps 660 mmHg 75%
    20:00 +7°C° 0.1 mm 2 mps 660 mmHg 82%
    21:00 +8°C° 0.2 mm 1 mps 660 mmHg 84%
    22:00 +7°C° 0.2 mm 1 mps 659 mmHg 87%
    23:00 +7°C° 0.2 mm 1 mps 659 mmHg 89%

    Tomorrow, 27 September, Thursday

    Time Temperature Precipitation Wind Pressure Humidity
    00:00 +7°C° 0.5 mm 1 mps 659 mmHg 91%
    01:00 +7°C° 0.5 mm 1 mps 659 mmHg 92%
    02:00 +6°C° 0.5 mm 1 mps 659 mmHg 94%
    03:00 +6°C° 1.5 mm 1 mps 659 mmHg 94%
    04:00 +5°C° 1.5 mm 2 mps 659 mmHg 95%
    05:00 +5°C° 1.5 mm 2 mps 658 mmHg 95%
    06:00 +5°C° 2.9 mm 2 mps 658 mmHg 95%
    07:00 +5°C° 2.9 mm 2 mps 658 mmHg 94%
    08:00 +3°C° 2.9 mm 3 mps 658 mmHg 93%
    09:00 +3°C° 1.8 mm 3 mps 658 mmHg 92%
    10:00 +3°C° 1.8 mm 3 mps 658 mmHg 91%
    11:00 +3°C° 1.8 mm 3 mps 658 mmHg 91%
    12:00 +3°C° 0.4 mm 3 mps 658 mmHg 89%
    13:00 +3°C° 0.4 mm 3 mps 658 mmHg 88%
    14:00 +4°C° 0.4 mm 3 mps 658 mmHg 86%
    15:00 +3°C° 0.5 mm 3 mps 658 mmHg 87%
    16:00 +3°C° 0.5 mm 3 mps 659 mmHg 88%
    17:00 +3°C° 0.5 mm 3 mps 659 mmHg 89%
    18:00 +2°C° 0.6 mm 3 mps 659 mmHg 90%
    19:00 +2°C° 0.6 mm 3 mps 659 mmHg 91%
    20:00 +2°C° 0.6 mm 3 mps 660 mmHg 92%
    21:00 +1°C° 0.6 mm 3 mps 660 mmHg 92%
    22:00 +1°C° 0.6 mm 3 mps 659 mmHg 92%
    23:00 +1°C° 0.6 mm 3 mps 659 mmHg 92%

    Day after tomorrow, 28 September, Friday

    Time Temperature Precipitation Wind Pressure Humidity
    00:00 0°C° 2.2 mm 4 mps 659 mmHg 93%
    01:00 0°C° 2.2 mm 4 mps 659 mmHg 94%
    02:00 -1°C° 2.2 mm 4 mps 658 mmHg 94%
    03:00 -1°C° 3.1 mm 4 mps 658 mmHg 95%
    04:00 -1°C° 3.1 mm 4 mps 658 mmHg 95%
    05:00 -1°C° 3.1 mm 5 mps 657 mmHg 95%
    06:00 0°C° 2.9 mm 4 mps 658 mmHg 96%
    07:00 0°C° 2.9 mm 4 mps 658 mmHg 97%
    08:00 +1°C° 2.9 mm 3 mps 658 mmHg 97%
    09:00 +2°C° 1.7 mm 3 mps 659 mmHg 98%
    10:00 +2°C° 1.7 mm 3 mps 660 mmHg 98%
    11:00 +3°C° 1.7 mm 3 mps 661 mmHg 99%
    12:00 +3°C° 0.6 mm 3 mps 661 mmHg 99%
    13:00 +4°C° 0.6 mm 2 mps 662 mmHg 99%
    14:00 +5°C° 0.6 mm 2 mps 662 mmHg 99%
    15:00 +5°C° 0.6 mm 2 mps 663 mmHg 99%
    16:00 +5°C° 0.6 mm 2 mps 664 mmHg 99%
    17:00 +5°C° 0.6 mm 2 mps 664 mmHg 99%
    18:00 +5°C° 0.2 mm 2 mps 665 mmHg 99%
    19:00 +4°C° 0.2 mm 2 mps 665 mmHg 99%
    20:00 +4°C° 0.2 mm 2 mps 666 mmHg 98%
    21:00 +4°C° 0.1 mm 2 mps 666 mmHg 98%
    22:00 +4°C° 0.1 mm 2 mps 667 mmHg 98%
    23:00 +4°C° 0.1 mm 2 mps 667 mmHg 97%

    29 September, Saturday

    Time Temperature Precipitation Wind Pressure Humidity
    00:00 +4°C° 0 mm 2 mps 667 mmHg 97%
    01:00 +5°C° 0 mm 1 mps 667 mmHg 97%
    02:00 +5°C° 0 mm 1 mps 667 mmHg 97%
    03:00 +5°C° 0 mm 1 mps 668 mmHg 96%
    04:00 +4°C° 0 mm 1 mps 668 mmHg 96%
    05:00 +4°C° 0 mm 1 mps 668 mmHg 95%
    06:00 +4°C° 0 mm 1 mps 668 mmHg 95%
    07:00 +5°C° 0 mm 1 mps 668 mmHg 95%
    08:00 +5°C° 0 mm 1 mps 669 mmHg 95%
    09:00 +5°C° 0 mm 1 mps 668 mmHg 95%
    10:00 +6°C° 0 mm 1 mps 668 mmHg 96%
    11:00 +7°C° 0 mm 1 mps 668 mmHg 96%
    12:00 +7°C° 0 mm 1 mps 668 mmHg 96%
    13:00 +7°C° 0 mm 1 mps 668 mmHg 95%
    14:00 +8°C° 0 mm 1 mps 668 mmHg 95%
    15:00 +7°C° 0 mm 1 mps 668 mmHg 96%
    16:00 +7°C° 0 mm 1 mps 668 mmHg 96%
    17:00 +7°C° 0 mm 1 mps 667 mmHg 97%
    18:00 +6°C° 0 mm 1 mps 668 mmHg 97%
    19:00 +6°C° 0 mm 1 mps 668 mmHg 97%
    20:00 +5°C° 0 mm 1 mps 668 mmHg 97%
    21:00 +5°C° 0 mm 1 mps 668 mmHg 96%
    22:00 +4°C° 0 mm 1 mps 668 mmHg 96%
    23:00 +4°C° 0 mm 1 mps 668 mmHg 95%

    30 September, Sunday

    Time Temperature Precipitation Wind Pressure Humidity
    00:00 +4°C° 0 mm 1 mps 668 mmHg 95%
    01:00 +3°C° 0 mm 1 mps 667 mmHg 94%
    02:00 +3°C° 0 mm 1 mps 667 mmHg 94%
    03:00 +3°C° 0 mm 1 mps 667 mmHg 93%
    04:00 +3°C° 0 mm 1 mps 667 mmHg 93%
    05:00 +3°C° 0 mm 1 mps 667 mmHg 93%
    06:00 +3°C° 0 mm 1 mps 667 mmHg 93%
    07:00 +4°C° 0 mm 1 mps 667 mmHg 92%
    08:00 +4°C° 0 mm 1 mps 667 mmHg 92%
    09:00 +4°C° 0 mm 2 mps 667 mmHg 92%
    10:00 +5°C° 0 mm 2 mps 667 mmHg 92%
    11:00 +6°C° 0 mm 2 mps 666 mmHg 91%
    12:00 +7°C° 0 mm 2 mps 666 mmHg 90%
    13:00 +7°C° 0 mm 2 mps 666 mmHg 89%
    14:00 +8°C° 0 mm 2 mps 666 mmHg 89%
    15:00 +7°C° 0 mm 2 mps 665 mmHg 89%
    16:00 +7°C° 0 mm 2 mps 665 mmHg 90%
    17:00 +6°C° 0 mm 2 mps 665 mmHg 91%
    18:00 +5°C° 0 mm 2 mps 665 mmHg 91%
    19:00 +4°C° 0 mm 2 mps 665 mmHg 92%
    20:00 +3°C° 0 mm 2 mps 665 mmHg 92%
    21:00 +3°C° 0 mm 2 mps 665 mmHg 93%
    22:00 +4°C° 0 mm 1 mps 665 mmHg 93%
    23:00 +3°C° 0 mm 1 mps 664 mmHg 93%

    1 October, Monday

    Time Temperature Precipitation Wind Pressure Humidity
    00:00 +3°C° 0 mm 1 mps 664 mmHg 93%
    01:00 +3°C° 0 mm 1 mps 664 mmHg 94%
    02:00 +3°C° 0 mm 1 mps 664 mmHg 94%
    03:00 +2°C° 0.4 mm 2 mps 664 mmHg 94%
    04:00 +3°C° 0.4 mm 2 mps 664 mmHg 94%
    05:00 +3°C° 0.4 mm 2 mps 664 mmHg 94%
    06:00 +2°C° 0.5 mm 3 mps 664 mmHg 93%
    07:00 +2°C° 0.5 mm 3 mps 664 mmHg 93%
    08:00 +2°C° 0.5 mm 3 mps 665 mmHg 92%
    09:00 +2°C° 0 mm 3 mps 664 mmHg 88%
    10:00 +3°C° 0 mm 3 mps 664 mmHg 84%
    11:00 +3°C° 0 mm 3 mps 664 mmHg 80%
    12:00 +3°C° 0 mm 3 mps 664 mmHg 77%
    13:00 +4°C° 0 mm 3 mps 664 mmHg 75%
    14:00 +4°C° 0 mm 3 mps 664 mmHg 72%
    15:00 +4°C° 0 mm 3 mps 663 mmHg 73%
    16:00 +4°C° 0 mm 2 mps 663 mmHg 75%
    17:00 +4°C° 0 mm 2 mps 663 mmHg 76%
    18:00 +3°C° 0 mm 2 mps 663 mmHg 78%
    19:00 +2°C° 0 mm 2 mps 663 mmHg 81%
    20:00 +2°C° 0 mm 1 mps 662 mmHg 84%
    21:00 +1°C° 0 mm 2 mps 662 mmHg 84%
    22:00 +1°C° 0 mm 2 mps 662 mmHg 84%
    23:00 +1°C° 0 mm 2 mps 661 mmHg 84%
    Show more